Regional Weather Roundup
Issued by NWS Midland/Odessa, TX

Skip options and go directly to product.
Home | Oldest Version | Previous Version | Current Version | All | Text Only | Save Text | Print | Product List | Glossary On

Skip product version selection by date and time.   
979
ASUS44 KMAF 270701
RWRMAF
MIDLAND AREA WEATHER ROUNDUP
NATIONAL WEATHER SERVICE MIDLAND TX
200 AM CDT TUE SEP 27 2016

...IN SOUTHWEST TEXAS AND SOUTHEAST NEW MEXICO...

CITY           SKY/WX    TMP DP  RH WIND       PRES   REMARKS
ALPINE         CLOUDY    49  48  99 E3        30.39S
ANDREWS        CLOUDY    59  51  75 CALM      30.30S
ARTESIA        CLOUDY    54  54 100 S6        30.31S
BIG SPRING       N/A     61  49  65 CALM      30.28
CARLSBAD       CLOUDY    59  53  80 CALM      30.30S
DRYDEN           N/A     60  51  72 N10       30.22S
FORT STOCKTON  CLOUDY    53  51  93 W8        30.30S
GUAD PASS      CLOUDY    51  38  60 NE18      30.35F
HOBBS          LGT RAIN  55  55 100 W5        30.32S
MARFA          CLOUDY   N/A N/A N/A NE8       30.33F
MIDLAND AIRPK  CLOUDY    63  46  55 CALM      30.28S
MIDLAND INTL   CLOUDY    62  49  62 CALM      30.28S
ODESSA         LGT RAIN  59  52  77 VRB3      30.30R
PECOS          CLOUDY    56  51  82 CALM        N/A
PRESIDIO       NOT AVBL
SEMINOLE       CLOUDY    58  52  79 CALM      30.31S
SNYDER           N/A     58  48  69 CALM      30.26S
WINK           CLOUDY    56  54  93 SW7       30.30S
$$
...OTHER STATIONS IN TEXAS...

CITY           SKY/WX    TMP DP  RH WIND       PRES   REMARKS
ABILENE        CLOUDY    60  53  77 CALM      30.21F
AMARILLO       CLOUDY    50  38  63 SW9       30.29S
AUSTIN         CLOUDY    68  64  87 N7        30.10S
BROWNSVILLE    LGT RAIN  79  75  87 N7        29.95F
CORPUS CHRISTI CLOUDY    73  70  90 N13       30.02S
DALLAS FTW     CLOUDY    68  60  75 N6        30.12S
DEL RIO        CLOUDY    66  60  81 NW12      30.15F
EL PASO        CLOUDY    57  46  66 NE6       30.30F
HOUSTON INT    CLOUDY    74  72  93 N8        30.03S
LUBBOCK        CLOUDY    54  43  66 CALM      30.28S
SAN ANGELO     MOCLDY    63  54  72 N5        30.21S
SAN ANTONIO    CLOUDY    67  61  81 N7        30.10F
WACO           CLOUDY    67  61  81 N10       30.11F
WICHITA FALLS  NOT AVBL
$$
...OTHER LOCATIONS IN NEW MEXICO...

CITY           SKY/WX    TMP DP  RH WIND       PRES   REMARKS
ALAMAGORDO     LGT RAIN  54  52  94 W6          N/A
ALBUQUERQUE    CLOUDY    58  34  40 CALM      30.35R
CANNON AFB     CLEAR     55  43  63 W2        30.33R
CLOVIS         CLOUDY    52  43  71 SW6       30.33S
HOLLOMAN AFB   LGT RAIN  55  53  96 NE5       30.31S
ROSWELL        PTCLDY    53  47  79 CALM      30.30S
RUIDOSO        CLOUDY    50  39  66 S3        30.43F
SANTA FE       CLEAR     49  33  54 E7        30.39F
TRUTH OR CONSE CLOUDY    53  51  93 S5        30.33F
TUCUMCARI      CLOUDY    54  38  54 W8        30.30S
$$

USA.gov is the U.S. government's official web portal to all federal, state and local government web resources and services.